This is the latest recevied weather packets stored in our database for station/object KB5DPX. If no packets are shown the sender has not sent any weather packets the latest 10 day(s).
| Time | Temp. | Humidity | Pressure | Rain* | Wind** | Luminosity | Snow |
|---|---|---|---|---|---|---|---|
| 1778074059 | 5° C | 57% | 1012.7 hPa | 0 mm | - | 557 W/m² | - |
| 1778073744 | 5° C | 57% | 1012.7 hPa | 0 mm | - | 545 W/m² | - |
| 1778073457 | 5° C | 59% | 1012.6 hPa | 0 mm | - | 508 W/m² | - |
| 1778073142 | 4.44° C | 61% | 1012.6 hPa | 0 mm | - | 526 W/m² | - |
| 1778072856 | 5° C | 60% | 1012.6 hPa | 0 mm | - | 315 W/m² | - |
| 1778072542 | 4.44° C | 59% | 1012.8 hPa | 0 mm | - | 404 W/m² | - |
| 1778072263 | 5° C | 60% | 1012.8 hPa | 0 mm | - | 366 W/m² | - |
| 1778071967 | 4.44° C | 60% | 1012.8 hPa | 0 mm | - | 420 W/m² | - |
| 1778071651 | 4.44° C | 64% | 1012.7 hPa | 0 mm | - | 529 W/m² | - |
| 1778071366 | 4.44° C | 65% | 1012.7 hPa | 0 mm | - | 566 W/m² | - |
| 1778071048 | 3.89° C | 64% | 1012.5 hPa | 0 mm | - | 424 W/m² | - |
| 1778070762 | 3.89° C | 66% | 1012.6 hPa | 0 mm | - | 399 W/m² | - |
| 1778070460 | 3.89° C | 71% | 1012.7 hPa | 0 mm | - | 339 W/m² | - |
| 1778070159 | 3.33° C | 75% | 1012.6 hPa | 0 mm | - | 350 W/m² | - |
| 1778069861 | 2.78° C | 75% | 1012.4 hPa | 0 mm | - | 332 W/m² | - |
| 1778069565 | 2.78° C | 77% | 1012.3 hPa | 0 mm | - | 320 W/m² | - |
| 1778069250 | 2.22° C | 80% | 1012.3 hPa | 0 mm | - | 301 W/m² | - |
| 1778068968 | 2.22° C | 83% | 1012.3 hPa | 0 mm | - | 285 W/m² | - |
| 1778068646 | 1.67° C | 83% | 1012.3 hPa | 0 mm | - | 269 W/m² | - |
| 1778068359 | 1.67° C | 85% | 1012.3 hPa | 0 mm | - | 251 W/m² | - |
| 1778068059 | 1.11° C | 87% | 1012.2 hPa | 0 mm | - | 234 W/m² | - |
| 1778067762 | 1.11° C | 88% | 1012.2 hPa | 0 mm | - | 218 W/m² | - |
| 1778067466 | 0.56° C | 89% | 1012.3 hPa | 0 mm | - | 209 W/m² | - |
| 1778067142 | 0° C | 89% | 1012.2 hPa | 0 mm | - | 188 W/m² | - |
| 1778066848 | 0° C | 89% | 1012 hPa | 0 mm | - | 178 W/m² | - |
* Rain latest hour (hover to see other rain measurements)
** Current wind speed in m/s (hover to see current wind gust speed)